Weather Roundup
Issued by NWS

Home | Current Version | Previous Version | Text Only | Print | Product List | Glossary On
Versions: 1 2 3 4 5 6 7 8 9 10 11 12 13 14 15 16 17 18 19 20 21 22 23 24 25 26 27 28 29 30 31 32 33 34 35 36 37 38 39 40 41 42 43 44 45 46 47 48 49 50
000
NZUS93 KARX 201810
HRRWXR

CURRENT HOURLY OBSERVATIONS ACROSS
MUCH OF THE UPPER MISSISSIPPI VALLEY
NATIONAL WEATHER SERVICE LA CROSSE WI
100 PM CDT THU JUL 20 2017


...SOUTHEAST MINNESOTA...


CITY           SKY/WX    TMP DP  RH WIND       PRES   REMARKS
ROCHESTER      MOSUNNY   81  73  76 CALM      30.04S
ROCHESTER/MAYO FAIR      82  70  66 CALM      30.04S
WINONA         MOSUNNY   81  68  65 NE3       30.00F
AUSTIN         CLOUDY    82  72  69 E5        30.03S
ALBERT LEA     CLOUDY    82  72  69 E5        30.04S
DODGE CENTER   MOSUNNY   81  70  69 SE5       30.04S
PRESTON        SUNNY     80  69  67 E6        30.04S
OWATONNA       MOSUNNY   82  73  74 CALM      30.03S
FARIBAULT      PTSUNNY   81  70  69 N5        30.03F
$$

...ELSEWHERE IN MINNESOTA...


CITY           SKY/WX    TMP DP  RH WIND       PRES   REMARKS
MINNEAPOLIS    PTSUNNY   81  67  62 SW5       30.02S
INTNL FALLS    SUNNY     76  55  48 W9        30.01S
DULUTH         MOSUNNY   80  63  55 NW12G17   30.00F
RED WING       CLOUDY    81  70  69 CALM      30.01S
REDWOOD FALLS  CLOUDY    79  69  71 S5        30.03F
MANKATO        PTSUNNY   81  70  69 SE6       30.03F
WORTHINGTON    PTSUNNY   83  68  60 E8        30.06R
FAIRMONT       MOSUNNY   82  74  76 E8        30.02F
$$

...SOUTHWEST WISCONSIN...


CITY           SKY/WX    TMP DP  RH WIND       PRES   REMARKS
LA CROSSE      SUNNY     84  70  62 VRB6      29.99F
PRAIRIE DU CHI CLOUDY    82  70  66 N3        29.98F
BOSCOBEL       CLOUDY    85  73  67 NW3       29.98F HX  91
LONE ROCK      MOSUNNY   84  73  69 NW7       29.98F HX  90
PLATTEVILLE    MOSUNNY   81  77  89 W5        29.99F
FORT MC COY    CLOUDY    81  70  69 NW5       30.01F
CAMP DOUGLAS   PTSUNNY   82  72  69 W8        30.00F
MAUSTON-NEW LI PTCLDY    82  72  73 NW9       29.99F
VIROQUA        FAIR      81  71  70 N6        30.03F
WIS DELLS      PTSUNNY   84  67  56 NW8       29.99F
$$

...ELSEWHERE IN WISCONSIN...


CITY           SKY/WX    TMP DP  RH WIND       PRES   REMARKS
MILWAUKEE      MOSUNNY   81  71  71 NE9       29.96F
MADISON        PTSUNNY   83  72  69 VRB6      29.98S
GREEN BAY      MOSUNNY   82  72  71 NW9       29.95F
EAU CLAIRE     CLOUDY    81  67  62 NW6       30.01F
BLACK RVR FLS  FAIR      83  67  58 CALM      30.00F
MEDFORD        SUNNY     79  65  62 NW7       30.02F
WAUSAU         SUNNY     78  65  63 W10       30.00S
WIS RAPIDS     CLOUDY    81  70  69 VRB6      30.01F
MARSHFIELD     MOSUNNY   80  68  66 W9        30.01F
RICE LAKE      MOSUNNY   80  68  67 W6        30.04F
$$

...NORTHEAST IOWA...


CITY           SKY/WX    TMP DP  RH WIND       PRES   REMARKS
WATERLOO       MOSUNNY   86  77  74 NE8       29.96S HX  97
DUBUQUE        CLOUDY    81  75  82 SW7       29.98F
DECORAH        CLOUDY    81  73  78 N6        30.00S
MASON CITY     PTSUNNY   83  75  77 E9        30.03S HX  90
CHARLES CITY   CLOUDY    81  77  89 NE7       30.02R
OELWEIN        CLOUDY    84  79  84 VRB3      30.00S HX  96
$$

...ELSEWHERE IN IOWA...


CITY           SKY/WX    TMP DP  RH WIND       PRES   REMARKS
DES MOINES     MOSUNNY   92  73  53 VRB6      29.96S HX 100
IOWA CITY      MOSUNNY   90  76  63 SW5       29.97F HX 101
FORT DODGE     SUNNY     88  75  66 N7        30.00R HX  97
MARSHALLTOWN   SUNNY     90  77  65 VRB5      29.96F HX 103
CEDAR RAPIDS   SUNNY     87  79  76 SW6       29.96F HX 101
$$

...NORTHERN ILLINOIS...


CITY           SKY/WX    TMP DP  RH WIND       PRES   REMARKS
CHICAGO-OHARE  PTSUNNY   87  73  62 W13       29.94F HX  94
CHICAGO-MIDWAY MOSUNNY   87  74  64 W17G24    29.95S HX  95
MOLINE         SUNNY     88  74  63 W8        29.95F HX  96
ROCKFORD       MOSUNNY   86  75  69 W10       29.97F HX  95
PEORIA         MOSUNNY   90  76  63 SW16      29.98F HX 101
$$

NOTE: "FAIR" INDICATES FEW OR NO CLOUDS BELOW 12,000 FEET WITH NO
SIGNIFICANT WEATHER AND/OR OBSTRUCTIONS TO VISIBILITY. WIND
SPEEDS ARE IN MILES-PER-HOUR.




USA.gov is the U.S. government's official web portal to all federal, state and local government web resources and services.